Location: Dogstar Observatory
(35.3981°N, 83.1078°W)
Time: 01:55:35
(UTC-05:00)

ISS - Pass Details

Date: 03 December 2021
Orbit: 413 x 422 km, 51.6° (Epoch: 29 January)

Event Time Altitude Azimuth Distance (km) Brightness Sun altitude
Rises 18:49:11 0° 324° (NW) 2,377 0.3 -17.9°
Reaches altitude 10° 18:51:51 10° 347° (NNW) 1,507 -1.0 -18.4°
Enters shadow 18:52:30 13° 356° (N) 1,351 -1.3 -18.5°
